#timestamp,LO_Frequency,Hit,StdDev 
1619676015.5,286046998.7,N
1619676035.4,286046998.9,N
1619676055.2,286046998.7,N
1619676075.1,286046998.3,N
1619676076.0,286046998.3,N
1619676095.8,286046999.0,N
1619676115.6,286046998.3,N
1619676135.5,286046998.6,N
1619676155.3,286046998.1,N
1619676175.1,286046998.7,N
1619676195.9,286046998.5,N
1619676215.7,286046998.4,N
1619676235.6,286046998.5,N
1619676255.4,286047001.2,N
1619676275.2,286046998.3,N
1619676295.1,286046998.4,N
1619676296.0,286046998.4,N
1619676315.8,286046998.3,N
1619676335.6,286046998.5,N
1619676355.5,286046998.3,N
1619676375.3,286046998.4,N
1619676395.2,286047000.8,N
1619676415.9,286047001.2,N
1619676435.7,286046999.0,N
1619676455.6,286046999.0,N
1619676475.4,286046999.0,N
1619676495.3,286046999.3,N
1619676515.1,286046999.1,N
1619676516.0,286046999.1,N
1619676535.8,286046999.3,N
1619676555.7,286046998.7,N
1619676575.5,286046998.9,N
1619676595.3,286046999.5,N
1619676615.2,286046998.8,N
1619676635.0,286046998.7,N
1619676635.9,286046998.7,N
1619676655.8,286046998.7,N
1619676675.6,286046998.7,N
1619676695.4,286046999.1,N
1619676715.3,286046999.3,N
1619676735.1,286046999.2,N
1619676755.8,286046999.6,N
1619676775.7,286046996.5,Y
1619676795.5,286046998.8,P
1619676815.4,286046998.7,P
1619676835.2,286046998.3,P
1619676855.0,286046998.3,Y
1619676855.9,286046998.3,P
1619676875.8,286047001.0,P
1619676895.6,286046999.9,N
1619676915.5,286047000.3,N
1619676935.3,286047000.5,N
1619676955.1,286047000.6,N
1619676975.9,286046999.8,N
1619676995.7,286046999.7,N
1619677015.5,286046999.8,N
1619677035.4,286047002.8,Y
1619677055.2,286047002.1,P
1619677075.1,286047002.5,N
1619677076.0,286047002.5,N
1619677095.8,286047000.3,N
1619677115.6,286047000.4,N
1619677135.5,286047000.4,N
1619677155.3,286047002.8,N
1619677175.1,286047002.8,N
1619677195.9,286047002.8,N
1619677215.7,286047002.7,N
1619677235.6,286047002.3,N
1619677255.4,286047002.6,N
1619677275.2,286047000.3,N
1619677295.1,286046998.1,N
1619677296.0,286046998.1,N
1619677315.8,286047000.8,N
1619677335.6,286047001.1,N
1619677355.5,286047000.4,N
1619677375.3,286047000.9,N
1619677395.2,286047000.7,N
1619677415.9,286047000.6,N
1619677435.7,286047000.8,N
1619677455.6,286047001.1,N
1619677475.4,286046999.9,N
1619677495.3,286047000.1,N
1619677515.1,286047000.4,N
1619677516.0,286047000.4,N
1619677535.8,286047000.5,N
1619677555.7,286047000.2,N
1619677575.5,286047000.5,N
1619677595.3,286046999.7,N
1619677615.2,286047002.7,N
1619677635.0,286046999.7,N
1619677635.9,286046999.7,N
1619677655.8,286046999.9,N
1619677675.6,286046999.9,N
1619677695.4,286047002.8,N
1619677715.3,286047002.8,N
1619677735.1,286046999.8,N
1619677755.8,286047000.6,N
1619677775.7,286046999.7,N
1619677795.5,286046999.9,N
1619677815.4,286047000.3,N
1619677835.2,286047001.2,N
1619677855.0,286047000.5,N
1619677855.9,286047000.5,N
1619677875.8,286047000.3,N
1619677895.6,286047000.2,N
1619677915.5,286047000.6,N
1619677935.3,286047000.8,N
1619677955.1,286047001.1,N
1619677975.9,286047000.7,N
1619677995.7,286047001.0,N
1619678015.6,286047000.6,N
1619678035.4,286047000.7,N
1619678055.2,286047000.4,N
1619678075.1,286047000.2,N
1619678076.0,286047000.2,N
1619678095.8,286047000.9,N
1619678115.6,286047000.5,N
1619678135.5,286047001.0,N
1619678155.3,286047000.9,N
1619678175.2,286047000.4,N
1619678195.9,286047000.8,N
1619678215.7,286047000.0,N
1619678235.6,286047000.8,N
1619678255.4,286047000.7,N
1619678275.3,286047000.6,N
1619678295.1,286047001.0,N
1619678296.0,286047001.0,N
1619678315.8,286047000.6,N
1619678335.7,286047000.6,N
1619678355.5,286047000.0,N
1619678375.3,286047002.6,Y
1619678395.2,286047002.7,P
1619678415.0,286047000.3,N
1619678415.9,286047000.3,N
1619678435.8,286046999.8,N
1619678455.6,286047000.4,N
1619678475.4,286046999.9,N
1619678495.3,286047002.3,N
1619678515.1,286046999.9,N
1619678535.9,286046999.8,N
1619678555.7,286047000.5,N
1619678575.5,286047000.4,N
1619678595.4,286047001.0,N
1619678615.2,286047001.2,N
1619678635.0,286046998.3,N
1619678636.0,286046998.3,N
1619678655.8,286047000.3,N
1619678675.6,286047001.2,N
1619678695.5,286046998.6,N
1619678715.3,286047001.0,N
1619678735.1,286046998.2,N
1619678755.9,286046998.3,N
1619678775.7,286046998.5,N
1619678795.6,286047001.1,N
1619678815.4,286046998.3,N
1619678835.2,286046998.7,N
1619678855.1,286047001.2,N
1619678856.0,286047001.2,N
1619678875.8,286046998.5,N
1619678895.6,286046998.8,N
1619678915.5,286046998.8,N
1619678935.3,286046998.8,N
1619678955.2,286046998.1,N
1619678975.9,286046999.0,N
1619678995.7,286046998.8,N
1619679015.6,286046998.6,N
1619679035.4,286046998.8,N
1619679055.2,286046999.3,N
1619679075.1,286046998.9,N
1619679076.0,286046998.9,N
1619679095.8,286046998.7,N
1619679115.7,286046999.0,N
1619679135.5,286046999.0,N
1619679155.3,286046999.0,N
1619679175.2,286046998.4,N
1619679195.0,286046999.5,N
1619679195.9,286046999.5,N
1619679215.8,286046999.1,N
1619679235.6,286046999.2,N
1619679255.4,286046996.9,Y
1619679275.3,286046998.4,P
1619679295.1,286046998.3,P
1619679315.8,286046998.7,P
1619679335.7,286046999.0,Y
1619679355.5,286047000.2,P
1619679375.4,286047000.4,N
1619679395.2,286047001.0,N
1619679415.0,286047000.0,N
1619679415.9,286047000.0,N
1619679435.8,286047000.4,N
1619679455.6,286047000.8,N
1619679475.5,286047000.9,N
1619679495.3,286047000.9,N
1619679515.1,286047001.0,N
1619679535.9,286047000.7,N
1619679555.7,286047000.6,N
1619679575.5,286046998.5,N
1619679595.4,286046998.3,N
